Location: Fort Wayne
(41.1310°N, 85.1290°W)
Time: 23:19:33
(UTC-05:00)

Meteor 2-10 Rocket - Visible Passes

Search period start: 20 January 2017 00:00
Search period end: 30 January 2017 00:00
Orbit: 733 x 885 km, 81.2° (Epoch: 20 January)

Date Brightness Start Highest point End Pass type
(mag) Time Alt. Az. Time Alt. Az. Time Alt. Az.
24 Jan 5.9 20:39:24 10° NNW 20:39:54 13° NNW 20:39:54 13° NNW visible
25 Jan 5.1 20:15:05 10° N 20:16:53 23° N 20:16:53 23° N visible
26 Jan 4.0 19:50:51 10° N 19:54:19 41° NNE 19:54:19 41° NNE visible
26 Jan 6.3 21:34:33 10° NW 21:35:36 13° WNW 21:35:36 13° WNW visible
27 Jan 3.8 19:26:44 10° N 19:31:27 40° ENE 19:32:49 33° ESE visible
27 Jan 5.7 21:09:27 10° NW 21:13:12 21° W 21:14:15 20° WSW visible
28 Jan 4.2 19:02:44 10° NNE 19:07:04 28° ENE 19:11:26 10° SE visible
28 Jan 5.2 20:44:41 10° NNW 20:49:03 30° W 20:53:30 10° SSW visible
29 Jan 4.6 18:38:54 10° NNE 18:42:38 20° ENE 18:46:23 10° ESE visible
29 Jan 4.5 20:20:07 10° NNW 20:24:52 44° W 20:29:43 10° SSW visible
